When you browse on this site, cookies collect data to enhance your experience and personalize the content and advertising you see.
Visit our Privacy Policy to learn more. By continuing to use the site, you agree to this use of cookies and data.
  • en Suisse
  • Liste des pays
  • À 7 jours
  • Température de l'eau
  • Carte satellitaire
  • Carte météo
  • Widgets météo
  • user-avatar
    Se connecter

    Météo par heure à Sulukta

    Ce jour, 20 Janvier, Dimanche

    Heure Température Précipitation Vent Pression Humidité
    00:00 +1°C° 0 mm 2 m/s 643 mmHg 70%
    01:00 +1°C° 0 mm 2 m/s 643 mmHg 74%
    02:00 +1°C° 0 mm 2 m/s 643 mmHg 77%
    03:00 +1°C° 0 mm 2 m/s 643 mmHg 80%
    04:00 +1°C° 0 mm 2 m/s 643 mmHg 83%
    05:00 -1°C° 0 mm 2 m/s 642 mmHg 86%
    06:00 -1°C° 0 mm 2 m/s 642 mmHg 85%
    07:00 -1°C° 0 mm 2 m/s 642 mmHg 83%
    08:00 -1°C° 0 mm 2 m/s 642 mmHg 82%
    09:00 -1°C° 0.1 mm 2 m/s 642 mmHg 85%
    10:00 -1°C° 0.1 mm 3 m/s 642 mmHg 89%
    11:00 -1°C° 0.1 mm 3 m/s 643 mmHg 92%
    12:00 -2°C° 1.1 mm 3 m/s 643 mmHg 93%
    13:00 -2°C° 1.1 mm 3 m/s 643 mmHg 94%
    14:00 -4°C° 1.1 mm 3 m/s 643 mmHg 95%
    15:00 -4°C° 0.8 mm 3 m/s 643 mmHg 95%
    16:00 -5°C° 0.8 mm 3 m/s 643 mmHg 95%
    17:00 -5°C° 0.8 mm 3 m/s 644 mmHg 96%
    18:00 -5°C° 0.7 mm 3 m/s 644 mmHg 95%
    19:00 -5°C° 0.7 mm 3 m/s 645 mmHg 95%
    20:00 -4°C° 0.7 mm 2 m/s 646 mmHg 95%
    21:00 -5°C° 0.6 mm 2 m/s 646 mmHg 95%
    22:00 -5°C° 0.6 mm 2 m/s 647 mmHg 95%
    23:00 -3°C° 0.6 mm 1 m/s 647 mmHg 95%

    Demain, 21 Janvier, Lundi

    Heure Température Précipitation Vent Pression Humidité
    00:00 -3°C° 0.4 mm 1 m/s 648 mmHg 95%
    01:00 -3°C° 0.4 mm 1 m/s 648 mmHg 95%
    02:00 -3°C° 0.4 mm 1 m/s 649 mmHg 95%
    03:00 -4°C° 0.1 mm 1 m/s 649 mmHg 94%
    04:00 -4°C° 0.1 mm 1 m/s 649 mmHg 94%
    05:00 -4°C° 0.1 mm 1 m/s 650 mmHg 93%
    06:00 -4°C° 0 mm 1 m/s 650 mmHg 90%
    07:00 -4°C° 0 mm 1 m/s 651 mmHg 88%
    08:00 -4°C° 0 mm 1 m/s 651 mmHg 85%
    09:00 -4°C° 0 mm 1 m/s 651 mmHg 83%
    10:00 -3°C° 0 mm 1 m/s 652 mmHg 82%
    11:00 -2°C° 0 mm 1 m/s 652 mmHg 80%
    12:00 -2°C° 0 mm 1 m/s 651 mmHg 82%
    13:00 -1°C° 0 mm 1 m/s 651 mmHg 84%
    14:00 -1°C° 0 mm 1 m/s 650 mmHg 85%
    15:00 -2°C° 0 mm 1 m/s 650 mmHg 87%
    16:00 -2°C° 0 mm 1 m/s 649 mmHg 88%
    17:00 -3°C° 0 mm 1 m/s 649 mmHg 89%
    18:00 -3°C° 0 mm 1 m/s 649 mmHg 85%
    19:00 -4°C° 0 mm 1 m/s 649 mmHg 82%
    20:00 -4°C° 0 mm 1 m/s 649 mmHg 78%
    21:00 -4°C° 0 mm 1 m/s 649 mmHg 75%
    22:00 -4°C° 0 mm 1 m/s 648 mmHg 72%
    23:00 -7°C° 0 mm 2 m/s 648 mmHg 69%

    Après-demain, 22 Janvier, Mardi

    Heure Température Précipitation Vent Pression Humidité
    00:00 -6°C° 0 mm 1 m/s 648 mmHg 67%
    01:00 -6°C° 0 mm 1 m/s 647 mmHg 65%
    02:00 -6°C° 0 mm 1 m/s 647 mmHg 63%
    03:00 -6°C° 0 mm 1 m/s 646 mmHg 62%
    04:00 -6°C° 0 mm 1 m/s 646 mmHg 61%
    05:00 -6°C° 0 mm 1 m/s 645 mmHg 60%
    06:00 -6°C° 0 mm 1 m/s 645 mmHg 60%
    07:00 -6°C° 0 mm 1 m/s 645 mmHg 59%
    08:00 -6°C° 0 mm 1 m/s 645 mmHg 59%
    09:00 -4°C° 0 mm 1 m/s 645 mmHg 62%
    10:00 -2°C° 0 mm 1 m/s 645 mmHg 64%
    11:00 -1°C° 0 mm 1 m/s 645 mmHg 67%
    12:00 -1°C° 0 mm 1 m/s 645 mmHg 72%
    13:00 -1°C° 0 mm 1 m/s 644 mmHg 76%
    14:00 0°C° 0 mm 1 m/s 644 mmHg 81%
    15:00 -1°C° 0 mm 1 m/s 644 mmHg 83%
    16:00 -2°C° 0 mm 1 m/s 644 mmHg 85%
    17:00 -2°C° 0 mm 1 m/s 644 mmHg 87%
    18:00 -3°C° 0 mm 1 m/s 644 mmHg 82%
    19:00 -3°C° 0 mm 1 m/s 645 mmHg 78%
    20:00 -3°C° 0 mm 1 m/s 645 mmHg 74%
    21:00 -3°C° 0 mm 1 m/s 645 mmHg 70%
    22:00 -3°C° 0 mm 1 m/s 645 mmHg 67%
    23:00 -3°C° 0 mm 1 m/s 645 mmHg 63%

    23 Janvier, Mercredi

    Heure Température Précipitation Vent Pression Humidité
    00:00 -3°C° 0 mm 1 m/s 646 mmHg 62%
    01:00 -3°C° 0 mm 1 m/s 646 mmHg 60%
    02:00 -3°C° 0 mm 1 m/s 646 mmHg 59%
    03:00 -3°C° 0 mm 1 m/s 646 mmHg 58%
    04:00 -3°C° 0 mm 1 m/s 646 mmHg 57%
    05:00 -3°C° 0 mm 1 m/s 647 mmHg 56%
    06:00 -3°C° 0 mm 1 m/s 647 mmHg 55%
    07:00 -5°C° 0 mm 2 m/s 647 mmHg 54%
    08:00 -5°C° 0 mm 2 m/s 648 mmHg 53%
    09:00 -3°C° 0 mm 2 m/s 648 mmHg 55%
    10:00 0°C° 0 mm 1 m/s 648 mmHg 58%
    11:00 +1°C° 0 mm 1 m/s 649 mmHg 60%
    12:00 +2°C° 0 mm 1 m/s 648 mmHg 61%
    13:00 +1°C° 0 mm 2 m/s 648 mmHg 63%
    14:00 +1°C° 0 mm 2 m/s 648 mmHg 64%
    15:00 +1°C° 0 mm 1 m/s 648 mmHg 66%
    16:00 0°C° 0 mm 1 m/s 648 mmHg 67%
    17:00 -1°C° 0 mm 1 m/s 648 mmHg 69%
    18:00 -1°C° 0 mm 1 m/s 648 mmHg 66%
    19:00 -1°C° 0 mm 1 m/s 649 mmHg 63%
    20:00 -3°C° 0 mm 2 m/s 649 mmHg 59%
    21:00 -4°C° 0 mm 2 m/s 649 mmHg 57%
    22:00 -4°C° 0 mm 2 m/s 649 mmHg 56%
    23:00 -4°C° 0 mm 2 m/s 649 mmHg 54%

    24 Janvier, Jeudi

    Heure Température Précipitation Vent Pression Humidité
    00:00 -4°C° 0 mm 2 m/s 649 mmHg 53%
    01:00 -4°C° 0 mm 2 m/s 649 mmHg 52%
    02:00 -4°C° 0 mm 2 m/s 649 mmHg 52%
    03:00 -4°C° 0 mm 2 m/s 650 mmHg 52%
    04:00 -4°C° 0 mm 2 m/s 650 mmHg 52%
    05:00 -4°C° 0 mm 2 m/s 650 mmHg 52%
    06:00 -3°C° 0 mm 2 m/s 650 mmHg 53%
    07:00 -3°C° 0 mm 2 m/s 651 mmHg 53%
    08:00 -3°C° 0 mm 2 m/s 651 mmHg 54%
    09:00 -2°C° 0 mm 2 m/s 652 mmHg 54%
    10:00 -1°C° 0 mm 2 m/s 652 mmHg 53%
    11:00 +2°C° 0 mm 1 m/s 652 mmHg 53%
    12:00 +1°C° 0 mm 2 m/s 652 mmHg 55%
    13:00 +1°C° 0 mm 2 m/s 652 mmHg 56%
    14:00 +1°C° 0 mm 2 m/s 651 mmHg 58%
    15:00 -1°C° 0 mm 2 m/s 651 mmHg 61%
    16:00 +1°C° 0 mm 1 m/s 651 mmHg 65%
    17:00 0°C° 0 mm 1 m/s 651 mmHg 68%
    18:00 -1°C° 0 mm 1 m/s 652 mmHg 66%
    19:00 -3°C° 0 mm 2 m/s 652 mmHg 64%
    20:00 -4°C° 0 mm 2 m/s 652 mmHg 62%
    21:00 -4°C° 0 mm 2 m/s 652 mmHg 60%
    22:00 -4°C° 0 mm 2 m/s 652 mmHg 57%
    23:00 -5°C° 0 mm 3 m/s 652 mmHg 55%

    25 Janvier, Vendredi

    Heure Température Précipitation Vent Pression Humidité
    00:00 -5°C° 0 mm 3 m/s 652 mmHg 55%
    01:00 -5°C° 0 mm 3 m/s 652 mmHg 54%
    02:00 -5°C° 0 mm 3 m/s 651 mmHg 54%
    03:00 -4°C° 0 mm 2 m/s 651 mmHg 54%
    04:00 -4°C° 0 mm 2 m/s 651 mmHg 54%
    05:00 -4°C° 0 mm 2 m/s 651 mmHg 54%
    06:00 -4°C° 0 mm 2 m/s 651 mmHg 53%
    07:00 -4°C° 0 mm 2 m/s 651 mmHg 53%
    08:00 -4°C° 0 mm 2 m/s 651 mmHg 53%
    09:00 -3°C° 0 mm 2 m/s 651 mmHg 52%
    10:00 -2°C° 0 mm 2 m/s 652 mmHg 50%
    11:00 -1°C° 0 mm 2 m/s 652 mmHg 49%
    12:00 +1°C° 0 mm 2 m/s 652 mmHg 51%
    13:00 +1°C° 0 mm 2 m/s 651 mmHg 53%
    14:00 +1°C° 0 mm 2 m/s 651 mmHg 54%
    15:00 -1°C° 0 mm 2 m/s 651 mmHg 58%
    16:00 +1°C° 0 mm 1 m/s 651 mmHg 62%
    17:00 0°C° 0 mm 1 m/s 651 mmHg 66%
    18:00 0°C° 0 mm 1 m/s 651 mmHg 65%
    19:00 -1°C° 0 mm 1 m/s 651 mmHg 64%
    20:00 -3°C° 0 mm 2 m/s 651 mmHg 63%
    21:00 -3°C° 0 mm 2 m/s 651 mmHg 61%
    22:00 -4°C° 0 mm 2 m/s 651 mmHg 59%
    23:00 -5°C° 0 mm 3 m/s 651 mmHg 58%
    Voir plus